Wind_Speed
23 22 23 24 26 20 12 16 17 14 19 24 27 26 27 25 25 26 26 26 25 26 26 25 25 23 24 24 23 25 25 27
24 24 24 23 24 25 19 15 18 19 20 22 24 27 27 27 27 28 24 23 22 22 23 25 25 25 24 23 24 24 24 27
26 26 26 24 24 24 21 16 14 17 20 21 26 28 28 29 29 27 26 25 24 24 24 24 26 26 24 26 28 28 28 31
29 28 26 27 27 26 23 20 15 16 18 22 26 27 27 29 29 31 32 28 26 26 27 26 26 27 29 31 33 35 37 39
30 27 28 29 29 28 27 24 19 16 17 19 23 26 29 29 28 28 26 26 26 27 28 28 29 29 32 36 38 44 44 45
34 27 25 30 31 31 30 28 25 20 18 19 23 24 26 28 30 25 25 26 27 27 30 30 31 31 33 40 41 44 46 47
37 34 30 31 35 35 32 29 29 27 27 25 25 24 27 28 28 27 28 27 29 29 30 33 36 39 41 43 46 48 50 54
42 37 31 34 33 32 32 31 32 31 30 30 29 29 28 29 28 30 32 32 32 33 35 39 42 45 46 49 52 54 56 59
38 40 32 34 35 30 32 33 34 36 34 33 32 34 34 32 33 35 35 37 36 36 38 42 46 49 53 56 57 59 63 66
42 38 33 37 41 40 35 32 34 38 39 39 37 36 34 35 36 37 39 40 40 39 42 45 50 53 60 62 63 63 64 66
37 36 40 46 42 42 42 37 37 44 44 42 41 39 37 38 36 36 40 45 46 47 49 49 53 60 62 60 63 66 69 70
43 27 30 32 36 36 39 40 45 47 42 40 40 37 38 42 40 42 44 44 45 47 49 54 58 60 56 63 63 65 69 69
32 31 41 43 42 41 41 39 42 42 41 40 39 41 43 46 44 46 47 47 46 50 53 57 58 56 61 62 62 63 61 58
55 40 45 45 38 43 42 38 38 39 38 38 36 38 41 45 48 50 52 52 53 56 55 55 55 56 60 62 60 61 56 52
55 46 50 37 42 46 48 44 42 37 37 36 37 41 45 49 52 55 55 54 57 59 59 55 57 56 54 57 58 57 53 50
65 59 56 58 54 50 52 50 39 43 43 46 45 50 52 53 57 58 56 57 57 62 60 57 54 52 56 55 54 51 48 45
47 55 63 57 65 69 58 50 48 53 46 51 50 50 52 55 57 58 59 60 62 60 55 55 55 55 56 53 48 44 44 43
57 55 51 50 55 61 53 45 46 49 54 48 49 53 53 58 60 60 60 64 59 57 56 58 57 56 52 48 46 45 44 43
41 44 49 55 57 62 63 59 58 53 50 52 53 62 64 59 61 59 61 55 58 60 60 63 58 53 50 48 47 46 46 44
Wind_Direction
280 281 285 289 292 295 281 285 279 264 257 264 272 278 280 278 275 276 276 281 285 288 287 285 283 283 286 283 277 273 270 272
264 270 273 279 286 290 284 288 287 278 272 268 271 276 280 283 283 283 281 278 279 282 282 285 283 277 275 280 281 278 277 277
263 265 269 276 278 280 284 283 278 275 275 274 275 277 281 285 286 281 278 280 282 279 276 278 287 290 283 279 275 274 273 276
276 261 261 271 275 276 276 280 278 276 271 268 270 274 273 274 274 275 278 280 280 282 279 277 280 285 289 286 287 282 279 280
267 258 260 263 271 275 274 276 274 268 270 271 274 273 274 274 269 271 275 278 280 282 282 279 280 285 292 293 290 288 284 288
268 259 261 265 265 269 268 269 267 265 266 269 270 276 276 271 271 271 273 278 280 279 281 285 289 291 292 292 300 301 302 300
268 269 257 262 271 265 263 263 263 260 261 262 265 267 275 282 278 279 276 277 278 280 284 292 295 296 297 296 297 297 298 298
271 260 254 261 267 269 267 264 266 264 261 263 265 268 271 267 269 269 269 272 276 286 292 294 294 295 295 295 296 297 296 294
265 265 253 251 260 264 273 269 268 268 265 264 264 270 269 271 270 267 269 273 278 282 289 292 296 297 297 296 295 296 295 295
257 249 253 244 252 257 272 262 262 263 265 264 265 265 265 268 270 274 278 280 283 287 288 292 294 296 297 295 294 293 291 291
242 239 245 245 247 255 261 265 267 268 261 259 260 262 267 273 278 281 281 280 280 281 286 293 296 295 294 292 293 292 290 291
242 231 246 249 253 258 260 269 274 266 266 267 267 269 271 274 277 283 284 286 288 287 287 293 296 290 289 289 292 292 291 289
231 248 247 251 252 242 249 261 262 260 260 261 263 266 270 277 280 283 285 291 288 290 292 294 293 296 289 293 294 298 296 291
250 245 251 248 245 248 251 253 258 258 261 262 267 272 278 280 282 284 285 292 290 297 295 295 294 295 295 294 296 298 297 293
252 246 254 257 261 262 261 250 251 259 265 271 276 277 279 280 283 284 287 292 294 296 296 296 295 296 298 299 298 296 295 293
241 244 245 254 261 270 262 252 244 254 263 263 264 270 274 279 282 284 287 298 294 298 298 298 296 300 300 300 296 294 294 292
240 246 247 251 259 262 262 263 275 262 267 271 269 270 275 278 281 285 292 296 295 299 297 297 298 297 299 298 295 294 293 291
239 245 237 246 254 261 272 265 265 267 268 272 274 276 276 282 283 291 295 295 299 298 301 303 301 296 296 294 294 292 292 288
248 247 245 249 257 262 262 271 264 266 269 273 276 277 285 284 290 293 296 296 295 298 302 304 299 296 294 291 291 290 289 285
Height
5848 5847 5844 5842 5839 5842 5845 5845 5844 5842 5840 5839 5838 5838 5838 5838 5838 5837 5836 5835 5833 5831 5829 5828 5825 5823 5822 5820 5819 5818 5817 5815
5844 5842 5841 5839 5837 5835 5838 5840 5838 5836 5836 5834 5833 5832 5832 5832 5831 5831 5830 5829 5828 5827 5824 5821 5819 5818 5816 5813 5811 5809 5808 5805
5837 5836 5836 5834 5834 5832 5830 5831 5833 5831 5830 5829 5828 5827 5825 5824 5824 5822 5821 5821 5820 5819 5818 5815 5813 5810 5809 5806 5804 5801 5800 5797
5830 5830 5829 5828 5828 5827 5826 5826 5826 5825 5824 5823 5823 5821 5820 5818 5817 5816 5815 5814 5813 5811 5810 5809 5807 5804 5801 5799 5797 5794 5789 5789
5820 5820 5820 5820 5820 5820 5820 5819 5819 5818 5817 5816 5815 5814 5813 5811 5810 5809 5808 5807 5805 5804 5803 5801 5800 5798 5796 5792 5789 5785 5780 5777
5809 5809 5810 5811 5812 5813 5813 5813 5812 5813 5811 5811 5808 5807 5806 5804 5804 5802 5801 5800 5799 5797 5795 5793 5792 5791 5789 5785 5780 5777 5771 5766
5800 5803 5801 5801 5802 5804 5805 5806 5805 5806 5806 5804 5803 5801 5800 5800 5797 5795 5794 5794 5792 5791 5788 5786 5784 5781 5779 5777 5772 5768 5763 5756
5790 5793 5795 5793 5793 5794 5796 5798 5797 5797 5797 5796 5795 5794 5793 5792 5791 5790 5789 5787 5786 5783 5780 5778 5774 5771 5768 5765 5761 5757 5752 5746
5780 5782 5784 5785 5785 5787 5787 5788 5789 5787 5787 5787 5786 5785 5785 5784 5783 5782 5781 5780 5778 5775 5772 5768 5764 5760 5756 5752 5749 5744 5737 5732
5770 5769 5772 5774 5776 5776 5777 5778 5780 5781 5779 5778 5776 5776 5775 5775 5774 5773 5771 5770 5767 5765 5763 5759 5755 5750 5744 5738 5733 5728 5724 5719
5750 5757 5760 5760 5763 5765 5766 5767 5768 5769 5769 5769 5768 5767 5766 5765 5763 5762 5762 5760 5758 5756 5753 5748 5744 5738 5732 5726 5719 5713 5707 5701
5735 5735 5748 5751 5754 5756 5756 5755 5754 5754 5755 5756 5757 5756 5755 5755 5754 5752 5751 5748 5746 5744 5740 5736 5732 5725 5718 5712 5705 5699 5691 5685
5724 5730 5732 5736 5738 5740 5742 5744 5744 5745 5746 5746 5747 5747 5746 5744 5742 5741 5739 5736 5734 5731 5728 5723 5716 5708 5703 5696 5689 5682 5676 5669
5715 5716 5718 5721 5724 5729 5732 5731 5732 5735 5735 5735 5734 5734 5732 5731 5730 5727 5724 5722 5721 5718 5713 5707 5700 5694 5688 5680 5673 5668 5661 5655
5702 5707 5708 5710 5714 5717 5719 5717 5720 5722 5722 5722 5722 5722 5720 5718 5716 5714 5712 5710 5707 5702 5697 5691 5685 5679 5672 5666 5660 5653 5647 5642
5691 5696 5699 5701 5700 5703 5705 5706 5707 5710 5709 5709 5708 5708 5707 5705 5703 5701 5699 5696 5691 5687 5682 5676 5670 5664 5658 5651 5645 5640 5635 5630
5684 5686 5685 5688 5691 5694 5694 5695 5696 5695 5691 5695 5695 5694 5693 5691 5690 5688 5686 5681 5676 5671 5665 5660 5655 5650 5644 5637 5633 5628 5624 5620
5664 5670 5672 5677 5677 5677 5682 5686 5686 5684 5685 5681 5681 5681 5679 5678 5677 5675 5671 5667 5661 5656 5652 5646 5640 5635 5629 5624 5620 5616 5612 5609
5653 5657 5663 5666 5668 5669 5670 5671 5670 5671 5669 5668 5668 5669 5668 5667 5665 5661 5657 5652 5647 5642 5637 5631 5626 5620 5614 5610 5606 5603 5599 5596